GW3787 Weather Reports


Display with metric or nautical units.
time (UTC)temp
F
wind
direction
speed
MPH
gust
MPH
rain 1hr
in
rain 24hr
in
rain mn
in
humidity
%
barometer
mb
20260506134553 42 228 10.0 19.0 0.00 0.00 0.00 41 1019.0
20260506133051 40 241 12.0 15.0 0.00 0.00 0.00 42 1019.0
20260506131545 39 231 10.0 16.0 0.00 0.00 0.00 43 1019.1
20260506130042 39 252 11.0 14.0 0.00 0.00 0.00 45 1019.3
20260506124540 37 253 10.0 14.0 0.00 0.00 0.00 48 1019.5
20260506123041 35 251 7.0 11.0 0.00 0.00 0.00 52 1019.6
20260506121530 33 254 8.0 11.0 0.00 0.00 0.00 54 1019.7
20260506120036 33 245 8.0 12.0 0.00 0.00 0.00 54 1019.8
20260506114526 32 276 4.0 11.0 0.00 0.00 0.00 55 1019.9
20260506113025 33 268 5.0 9.0 0.00 0.00 0.00 56 1020.0
20260506111521 31 255 5.0 10.0 0.00 0.00 0.00 59 1020.3
20260506110024 31 272 0.0 9.0 0.00 0.00 0.00 58 1020.4
20260506104517 32 280 3.0 7.0 0.00 0.00 0.00 60 1020.7
20260506103025 27 267 1.0 7.0 0.00 0.00 0.00 67 1020.7
20260506101513 25 269 6.0 8.0 0.00 0.00 0.00 68 1020.8
20260506100010 25 298 3.0 5.0 0.00 0.00 0.00 68 1021.0
20260506094525 26 298 4.0 5.0 0.00 0.00 0.00 68 1021.0
20260506093008 26 298 2.0 7.0 0.00 0.00 0.00 65 1021.2
20260506091506 28 298 2.0 4.0 0.00 0.00 0.00 64 1021.2
20260506090004 25 299 3.0 7.0 0.00 0.00 0.00 70 1021.3
20260506084502 24 311 3.0 5.0 0.00 0.00 0.00 70 1021.3
20260506083059 25 334 0.0 3.0 0.00 0.00 0.00 69 1021.3
20260506081556 25 335 1.0 5.0 0.00 0.00 0.00 69 1021.4
20260506073057 26 5 0.0 1.0 0.00 0.00 0.00 70 1021.8
20260506071553 26 5 0.0 0.0 0.00 0.00 0.00 69 1021.8
20260506070107 27 5 0.0 2.0 0.00 0.00 0.00 66 1021.8
20260506061542 26 5 0.0 3.0 0.00 0.00 0.00 68 1021.7
20260506044544 28 27 0.0 3.0 0.00 0.00 0.00 64 1021.9
20260506043032 29 27 0.0 0.0 0.00 0.00 0.00 64 1021.9
20260506041531 28 27 0.0 0.0 0.00 0.00 0.00 62 1022.0
20260506040029 29 27 0.0 0.0 0.00 0.00 0.00 62 1022.0
20260506034528 29 27 0.0 1.0 0.00 0.00 0.00 60 1021.9
20260506033025 30 27 0.0 0.0 0.00 0.00 0.00 58 1021.7
20260506031525 33 27 0.0 1.0 0.00 0.00 0.00 51 1021.6
20260506030023 36 27 0.0 0.0 0.00 0.00 0.00 46 1021.5
20260506024526 38 27 0.0 0.0 0.00 0.00 0.00 45 1021.4
20260506023018 41 27 0.0 1.0 0.00 0.00 0.00 42 1021.3
20260506021518 42 25 0.0 8.0 0.00 0.00 0.00 40 1021.2
20260506020017 43 29 3.0 12.0 0.00 0.00 0.00 38 1021.1
20260506014516 44 30 6.0 12.0 0.00 0.00 0.00 36 1021.1
20260506013018 45 20 6.0 13.0 0.00 0.00 0.00 37 1021.1
20260506011517 45 29 8.0 13.0 0.00 0.00 0.00 34 1021.0
20260506010013 46 32 9.0 13.0 0.00 0.00 0.00 34 1020.9
20260506004512 47 23 5.0 12.0 0.00 0.00 0.00 33 1020.9
20260506003012 46 29 7.0 17.0 0.00 0.00 0.00 33 1020.9
20260506001510 46 17 4.0 18.0 0.00 0.00 0.00 34 1020.7
20260506000009 47 23 7.0 19.0 0.00 0.00 0.00 34 1020.5
20260505234512 47 10 6.0 19.0 0.00 0.00 0.00 34 1020.5
20260505233010 47 36 11.0 17.0 0.00 0.00 0.00 32 1020.5
20260505231510 48 10 3.0 18.0 0.00 0.00 0.00 34 1020.5
20260505230006 47 29 9.0 22.0 0.00 0.00 0.00 34 1020.5
20260505224506 47 31 12.0 21.0 0.00 0.00 0.00 34 1020.6
20260505223009 46 20 13.0 21.0 0.00 0.00 0.00 34 1020.6
20260505221504 47 26 11.0 18.0 0.00 0.00 0.00 34 1020.5
20260505220007 47 5 6.0 21.0 0.00 0.00 0.00 38 1020.3
20260505214502 47 5 8.0 21.0 0.00 0.00 0.00 36 1020.4
20260505213001 46 27 12.0 21.0 0.00 0.00 0.00 37 1020.3
20260505211502 46 31 11.0 20.0 0.00 0.00 0.00 37 1020.6
20260505210104 46 29 11.0 21.0 0.00 0.00 0.00 36 1020.4
20260505204602 46 335 12.0 24.0 0.00 0.00 0.00 36 1020.5
20260505203101 47 20 7.0 20.0 0.00 0.00 0.00 40 1020.6
20260505201607 46 5 12.0 23.0 0.00 0.00 0.00 40 1020.8
20260505200107 47 34 12.0 22.0 0.00 0.00 0.00 38 1020.6
20260505194603 46 324 6.0 19.0 0.00 0.00 0.00 43 1020.6
20260505193054 45 5 5.0 27.0 0.00 0.00 0.00 41 1020.6
20260505191554 45 26 15.0 28.0 0.00 0.00 0.00 41 1020.7
20260505190054 45 10 10.0 21.0 0.00 0.00 0.00 42 1020.6
20260505184551 45 20 8.0 24.0 0.00 0.00 0.00 42 1020.7
20260505183051 45 10 4.0 23.0 0.00 0.00 0.00 44 1020.7
20260505181547 44 29 13.0 27.0 0.00 0.00 0.00 41 1020.6
20260505180045 45 28 12.0 21.0 0.00 0.00 0.00 42 1020.7
20260505174546 44 18 6.0 20.0 0.00 0.00 0.00 43 1020.6
20260505173045 43 350 6.0 21.0 0.00 0.00 0.00 48 1020.5
20260505171540 43 341 5.0 15.0 0.00 0.00 0.00 49 1020.5
20260505170038 44 20 8.0 25.0 0.00 0.00 0.00 46 1020.4
20260505164537 42 29 6.0 20.0 0.00 0.00 0.00 48 1020.5
20260505163034 42 338 1.0 15.0 0.00 0.00 0.00 53 1020.5
20260505161531 42 10 4.0 16.0 0.00 0.00 0.00 52 1020.6
20260505153027 41 334 1.0 11.0 0.00 0.00 0.00 58 1020.5
20260505151521 40 25 5.0 13.0 0.00 0.00 0.00 58 1020.5